Showing default

SJ-11-08, 40286

Orbit data source: Space-Track

SJ-11-08, 40286 is a payload satellite owned by CNSA (CN) in SSO that was launched on Mon, 27 Oct 2014 UTC via a CHANG ZHENG 2C launch vehicle from the Jiuquan Satellite Launch Center, China (JSC). Payloads include a variety of satellites, spacecraft, and rockets equipped with specific instruments for various scientific and technological missions. These include communications satellites like Starlink; space stations such as the ISS; scientific satellites like the Hubble; Earth observation satellites from companies like Planet Labs, Umbra, and HawkEye 360; GPS; miniature CubeSats for education and research; and military/defense satellites.

Loading next visibility...
SJ-11-08 details
Identifier
40286, 2014-066A
Orbit
SSO
Last TLE update8 hours ago
Origin
Flag of CNCNSA (CN / PRC)
ManufacturerDFH
MissionOperational Defense Early Warn
Bus & MotorCAST-2000?, Unknown motor
Mass~300 kg wet, ~300 kg dry
Launch date (UTC)
2014-10-27 (10 years ago)
Launch vehicle
CHANG ZHENG 2C
Launch site
Jiuquan Satellite Launch Center, China (JSC)
Object type
Payload
Rocket body
Debris
Shape & HBRBox + 2 Pan, 3 m
Radar Cross Section2.045 m², Large (>1 m²)

Expand to show TLE details & history

TLE from 8 hours ago
0 SJ-11-08
1 40286U 14066A   24346.59049672  .00001872  00000-0  36013-3 0  9992
2 40286  98.2755 114.0957 0012849 160.4871 199.6826 14.64762487540274
Epoch: 2024-12-11T14:10Z
Definitive object data (Epoch: 2024-12-11T14:10:18.916Z)
Latitude-0.00001°
Longitude-179.26611°
Altitude689.367 km
Speed7.507 km/s
True Right ascension07h 36m 22s
True Declination0° 00' 00"
Sunlit
Object was in full shadow at TLE epoch
Visualization TLE readout
Latitude-58.23206°
Longitude-12.45575°
Altitude698.692 km
Speed7.506 km/s
Apparent Right ascension11h 10m 48s
Apparent Declination-78° 37' 36"
Sunlit
Object is in daylight
Visualization observer readout
Local Sidereal Time20:12:55
Azimuth191.795° SSW
Elevation-47.476°
Doppler factor1
Orbital elements
Apogee altitude683.979 km
Perigee altitude665.854 km
Semi-major axis7,053.053 km
Eccentricity0.0012849
Inclination98.2755°
RAAN114.0957°
Arg. of periapsis160.4871°
True anomaly199.63308°
Mean anomaly199.6826°
Eccentric anomaly199.65783°
Mean motion3.66419 °/min
BSTAR0.00036013
Orbital period98.25 mins
Loading maneuver chart data...
Loading historical data...
Loading historical data...
Loading historical data...
Loading historical data...
Loading historical data...
Loading historical data...
Loading historical data...
Other satellites on launch #66 in the year 2014 (2014-10-27 UTC)

SJ-11-08 Visibility forecast

Observer location: undefined°, undefined

Span
Click to sort rows by Start time (UTC) header in descending order
Start Az.
Max El. time (UTC)
Max El. Az.
Max El.
End time (UTC)
End Az.
4 mins2024-12-11 22:57:00.244Z322.967° NNW2024-12-11 22:59:00.244Z294.579° NW14.385°2024-12-11 23:01:00.244Z267.029° W
7 mins2024-12-12 08:21:00.244Z140.003° SSE2024-12-12 08:24:00.244Z57.898° ENE38.002°2024-12-12 08:28:00.244Z357.734° N
|